Location: Newark
(40.3500°N, 15.2333°E)
Time: 08:09:02
(UTC+00:00)

Altair - Pass Details

Date: 21 January 2020
Orbit: 1502 x 1682 km, 47.2° (Epoch: 17 February)

Event Time Altitude Azimuth Distance (km) Brightness Sun altitude
Rises 13:39:02 0° 295° (WNW) 4,936 10.3 20.5°
Reaches altitude 10° 13:42:14 10° 297° (WNW) 3,940 9.9 20.1°
Maximum altitude 13:52:25 82° 25° (NNE) 1,666 8.0 18.9°
Drops below altitude 10° 14:02:16 10° 114° (ESE) 3,819 9.5 17.7°
Sets 14:05:18 0° 115° (ESE) 4,778 9.9 17.3°
